MIDVIL-WX Weather Reports


Display with metric or nautical units.
time (UTC)temp
F
wind
direction
speed
MPH
gust
MPH
rain 1hr
in
rain 24hr
in
rain mn
in
humidity
%
barometer
mb
20260505153049 51 272 13.0 0.0 0.00 0.00 0.00 43 980.6
20260505151528 51 279 13.0 0.0 0.00 0.00 0.00 43 980.5
20260505124527 52 306 9.0 0.0 0.00 0.00 0.00 72 979.7
20260505123047 51 310 8.0 0.0 0.00 0.00 0.00 71 978.0
20260505121527 50 312 8.0 0.0 0.00 0.00 0.00 71 978.0
20260505120104 49 290 8.0 0.0 0.00 0.00 0.00 71 978.0
20260505114527 49 282 9.0 0.0 0.00 0.00 0.00 72 978.1
20260505113045 49 288 9.0 0.0 0.00 0.00 0.00 67 976.6
20260505111527 50 285 6.0 0.0 0.00 0.00 0.00 67 976.6
20260505101527 50 254 7.0 0.0 0.00 0.00 0.00 58 975.0
20260505100058 50 257 7.0 0.0 0.00 0.00 0.00 58 975.0
20260505094527 51 257 7.0 0.0 0.00 0.00 0.00 64 975.3
20260505093049 52 262 6.0 0.0 0.00 0.00 0.00 67 975.0
20260505091527 51 244 8.0 0.0 0.00 0.00 0.00 67 975.0
20260505084525 53 261 6.0 0.0 0.00 0.00 0.00 75 975.4
20260505083046 52 255 6.0 0.0 0.00 0.00 0.00 80 974.7
20260505081527 53 249 7.0 0.0 0.00 0.00 0.00 80 974.7
20260505080055 53 249 8.0 0.0 0.00 0.00 0.00 66 974.9
20260505074527 54 253 10.0 0.0 0.00 0.00 0.00 79 974.1
20260505073048 54 245 8.0 0.0 0.00 0.00 0.00 79 974.1
20260505071527 55 234 10.0 0.0 0.00 0.00 0.00 79 974.2
20260505070057 56 226 10.0 0.0 0.00 0.00 0.00 79 974.2
20260505064527 56 239 9.0 0.0 0.00 0.00 0.00 80 974.5
20260505063044 56 234 10.0 0.0 0.00 0.00 0.00 76 973.9
20260505061528 57 241 10.0 0.0 0.00 0.00 0.00 76 973.9
20260505054528 58 234 11.0 0.0 0.00 0.00 0.00 76 975.2
20260505053050 58 225 9.0 0.0 0.00 0.00 0.00 68 973.7
20260505051527 59 236 9.0 0.0 0.00 0.00 0.00 68 973.7
20260505041527 61 232 5.0 0.0 0.00 0.00 0.00 65 973.7
20260505040058 61 231 9.0 0.0 0.00 0.00 0.00 65 973.7
20260505034524 62 225 11.0 0.0 0.00 0.00 0.00 63 973.5
20260505033047 61 211 12.0 0.0 0.00 0.00 0.00 65 973.5
20260505031527 62 202 14.0 0.0 0.00 0.00 0.00 65 973.5
20260505030056 62 207 15.0 0.0 0.00 0.00 0.00 65 973.5
20260505024527 62 205 15.0 0.0 0.00 0.00 0.00 56 973.8
20260505023048 63 207 17.0 0.0 0.00 0.00 0.00 60 973.9
20260505021527 63 214 16.0 0.0 0.00 0.00 0.00 60 973.8
20260505020056 63 209 17.0 0.0 0.00 0.00 0.00 60 973.8
20260505014527 64 207 19.0 0.0 0.00 0.00 0.00 63 972.9
20260505013045 64 207 18.0 0.0 0.00 0.00 0.00 63 972.9
20260505011527 64 206 19.0 0.0 0.00 0.00 0.00 63 972.9
20260505010052 64 205 16.0 0.0 0.00 0.00 0.00 63 972.9
20260505004527 66 214 14.0 0.0 0.00 0.00 0.00 43 973.4
20260505003044 67 197 9.0 0.0 0.00 0.00 0.00 45 974.1
20260505001526 67 190 7.0 0.0 0.00 0.00 0.00 45 974.1
20260505000056 68 202 6.0 0.0 0.00 0.00 0.00 45 974.1
20260504234526 69 219 7.0 0.0 0.00 0.00 0.00 34 974.1
20260504233044 70 237 9.0 0.0 0.00 0.00 0.00 34 973.9
20260504231526 71 243 10.0 0.0 0.00 0.00 0.00 34 973.9
20260504230052 71 248 12.0 0.0 0.00 0.00 0.00 34 973.9
20260504224526 72 248 15.0 0.0 0.00 0.00 0.00 37 973.7
20260504223047 72 254 16.0 0.0 0.00 0.00 0.00 38 974.1
20260504221526 72 247 17.0 0.0 0.00 0.00 0.00 38 974.1
20260504220059 73 243 18.0 0.0 0.00 0.00 0.00 38 974.1
20260504214525 73 241 17.0 0.0 0.00 0.00 0.00 34 975.1
20260504213047 73 243 17.0 0.0 0.00 0.00 0.00 34 975.1
20260504211525 73 239 19.0 0.0 0.00 0.00 0.00 35 974.1
20260504210056 73 241 19.0 0.0 0.00 0.00 0.00 35 974.1
20260504204530 73 236 21.0 0.0 0.00 0.00 0.00 36 974.8
20260504203041 73 237 20.0 0.0 0.00 0.00 0.00 36 974.8
20260504201532 73 234 18.0 0.0 0.00 0.00 0.00 36 974.8
20260504200053 72 237 21.0 0.0 0.00 0.00 0.00 41 974.0
20260504194531 74 231 19.0 0.0 0.00 0.00 0.00 37 975.0
20260504193050 74 227 19.0 0.0 0.00 0.00 0.00 37 975.0
20260504191532 73 230 20.0 0.0 0.00 0.00 0.00 37 975.0
20260504190057 73 225 20.0 0.0 0.00 0.00 0.00 37 975.0
20260504184527 73 220 20.0 0.0 0.00 0.00 0.00 26 976.0
20260504183052 73 225 17.0 0.0 0.00 0.00 0.00 30 975.7
20260504181532 73 228 17.0 0.0 0.00 0.00 0.00 30 975.7
20260504180101 72 230 16.0 0.0 0.00 0.00 0.00 30 975.7
20260504174531 72 232 17.0 0.0 0.00 0.00 0.00 39 976.6
20260504173046 71 232 17.0 0.0 0.00 0.00 0.00 36 976.4
20260504171530 71 230 17.0 0.0 0.00 0.00 0.00 36 976.4